User: anonymous   Login
Location: Terra Rouge Observatory
(46.0000°N, 62.7500°W)
Time: 17:10:39
(UTC-04:00)
Language:

Landsat 5 - Orbit

View from above orbital plane
View from above orbital plane
View from above satellite
View from above satellite

Ground track
Ground track

The orbit data is extracted from the following two-line orbital elements,

1 14780U 84021A   14325.81441370  .00002089  00000-0  20881-3 0  4927
2 14780 098.0445 045.7712 0095040 016.8489 129.9075 14.89310143636071
Epoch (UTC): 21 November 2014 19:32:45
Eccentricity: 0.0095040
inclination: 98.0445°
perigee height: 534 km
apogee height: 666 km
right ascension of ascending node: 45.7712°
argument of perigee: 16.8489°
revolutions per day: 14.89310143
mean anomaly at epoch: 129.9075°
orbit number at epoch: 63607

The dashed part of the orbit path shows where the satellite is in the earth's shadow,  

DLR